Weather History for Hurlburt Field, FL

Change the Weather History Date:

Saturday, December 1, 2012

  Actual Average Record
Temperature  
Mean Temperature 60 °F -  
Max Temperature 71 °F 65 °F 75 °F (1998)
Min Temperature 49 °F 45 °F 28 °F (2011)
Degree Days  
Heating Degree Days 4    
Growing Degree Days 10 (Base 50)    
Moisture  
Dew Point 57 °F    
Average Humidity 86    
Maximum Humidity 100    
Minimum Humidity 69    
Precipitation  
Precipitation 0.00 in - - ()
Sea Level Pressure  
Sea Level Pressure 30.26 in    
Wind  
Wind Speed 4 mph (East)    
Max Wind Speed 12 mph    
Max Gust Speed -    
Visibility 10 miles    
Events Rain    
Averages and records for this station are not official NWS values.
T = Trace of Precipitation, MM = Missing Value Source: NWS Daily Summary

Daily Weather History Graph

Daily Weather History Graph

Search for Another Location

Airport:

Trip Planner

Search our weather history database for the weather conditions in past years. The results will help you decide how hot, cold, wet, or windy it might be!

Date:

Astronomy

Dec. 01, 2012 Rise Set
Actual Time 6:26 AM CST 4:45 PM CST
Civil Twilight 6:00 AM CST 5:11 PM CST
Nautical Twilight 5:30 AM CST 5:41 PM CST
Astronomical Twilight 5:01 AM CST 6:10 PM CST
Moon 7:31 PM CST (12/1) 8:41 AM CST (12/1)
Length of Visible Light 11h 11m
Length of Day
10h 19m
Waning Gibbous, 91% of the Moon is Illuminated
Dec 1
Waning Gibbous
Dec 6
Last Quarter
Dec 13
New
Dec 19
First Quarter
Dec 28
Full

Hourly Weather History & Observations

Time (CST) Temp. Dew Point Humidity Pressure Visibility Wind Dir Wind Speed Gust Speed Precip Events Conditions
12:55 AM 56.7 °F 56.1 °F 98% 30.23 in 10.0 mi Calm Calm - N/A   Overcast
1:55 AM 56.5 °F 56.3 °F 99% 30.23 in 10.0 mi Calm Calm - N/A   Overcast
2:55 AM 54.0 °F 54.0 °F 100% 30.23 in 10.0 mi Calm Calm - N/A   Scattered Clouds
3:55 AM 55.4 °F 54.9 °F 98% 30.22 in 10.0 mi ENE 4.6 mph - N/A   Clear
4:55 AM 53.2 °F 52.0 °F 95% 30.24 in 10.0 mi Calm Calm - N/A   Clear
5:55 AM 52.0 °F 51.6 °F 99% 30.25 in 10.0 mi NNW 3.5 mph - N/A   Clear
6:55 AM 50.0 °F 50.0 °F 100% 30.28 in 10.0 mi Calm Calm - N/A   Clear
7:55 AM 57.0 °F 55.4 °F 94% 30.29 in 10.0 mi NE 3.5 mph - N/A   Clear
8:55 AM 63.3 °F 57.9 °F 83% 30.30 in 10.0 mi East 6.9 mph - N/A   Clear
9:55 AM 67.3 °F 59.7 °F 77% 30.30 in 10.0 mi ESE 6.9 mph - N/A   Clear
10:04 AM 68.0 °F 59.0 °F 73% 30.30 in 10.0 mi East 6.9 mph - N/A   Light Drizzle
10:14 AM 68.0 °F 60.8 °F 78% 30.30 in 10.0 mi ESE 8.1 mph - N/A   Clear
10:55 AM 68.9 °F 61.0 °F 76% 30.30 in 10.0 mi ESE 6.9 mph - 0.00 in   Clear
10:56 AM 69.8 °F 60.8 °F 73% 30.29 in 10.0 mi ESE 8.1 mph - N/A   Light Drizzle
11:17 AM 69.8 °F 60.8 °F 73% 30.29 in 10.0 mi ESE 10.4 mph - N/A   Clear
11:55 AM 70.2 °F 62.6 °F 77% 30.27 in 10.0 mi ESE 9.2 mph - 0.00 in   Partly Cloudy
12:55 PM 70.9 °F 62.8 °F 75% 30.25 in 10.0 mi ESE 11.5 mph - N/A   Clear
1:55 PM 70.7 °F 62.1 °F 74% 30.24 in 10.0 mi SE 10.4 mph - N/A   Clear
2:02 PM 71.6 °F 60.8 °F 69% 30.24 in 10.0 mi ESE 9.2 mph - N/A   Light Drizzle
2:12 PM 71.6 °F 60.8 °F 69% 30.24 in 10.0 mi SE 8.1 mph - N/A   Clear
2:55 PM 70.7 °F 61.3 °F 72% 30.23 in 10.0 mi ESE 9.2 mph - 0.00 in   Clear
3:55 PM 69.6 °F 61.2 °F 74% 30.24 in 10.0 mi SE 4.6 mph - N/A   Clear
4:24 PM 68.0 °F 60.8 °F 78% 30.23 in 10.0 mi SE 3.5 mph - N/A Rain Light Rain
4:26 PM 68.0 °F 60.8 °F 78% 30.23 in 10.0 mi Calm Calm - N/A   Clear
4:55 PM 66.7 °F 60.6 °F 81% 30.24 in 10.0 mi SE 3.5 mph - 0.00 in   Clear
5:55 PM 64.9 °F 59.5 °F 83% 30.25 in 10.0 mi ESE 4.6 mph - N/A   Clear
6:55 PM 56.1 °F 55.0 °F 96% 30.25 in 10.0 mi Calm Calm - N/A   Clear
7:55 PM 54.5 °F 54.0 °F 98% 30.26 in 10.0 mi Calm Calm - N/A   Clear
8:55 PM 53.6 °F 53.2 °F 99% 30.26 in 10.0 mi NNE 4.6 mph - N/A   Clear
9:55 PM 52.2 °F 51.8 °F 99% 30.26 in 10.0 mi North 4.6 mph - N/A   Clear
10:55 PM 50.5 °F 50.4 °F 99% 30.25 in 10.0 mi NNE 3.5 mph - N/A   Clear
11:55 PM 49.8 °F 49.6 °F 99% 30.26 in 10.0 mi North 5.8 mph - N/A   Clear